Regional Weather Roundup
Issued by NWS Nashville, TN

Home | Current Version | Previous Version | Text Only | Print | Product List | Glossary On
Versions: 1 2 3 4 5 6 7 8 9 10 11 12 13 14 15 16 17 18 19 20 21 22 23 24 25 26 27 28 29 30 31 32 33 34 35 36 37 38 39 40 41 42 43 44 45 46 47 48 49 50
000
ASUS44 KOHX 162315
RWROHX
MIDDLE TENNESSEE HOURLY WEATHER ROUNDUP
NATIONAL WEATHER SERVICE NASHVILLE TN
600 PM CDT TUE SEP 16 2014

NOTE: "FAIR" INDICATES FEW OR NO CLOUDS BELOW 12,000 FEET WITH
NO SIGNIFICANT WEATHER AND/OR OBSTRUCTIONS TO VISIBILITY.

* THESE REPORTS ARE NOT UNDER NWS QUALITY CONTROL AND MAY NOT
  REPORT WEATHER SUCH AS PRECIPITATION AND FOG.


TNZ005>011-023>034-057-059-062>066-078-080-170000
...NORTHERN MIDDLE TENNESSEE...

CITY           SKY/WX    TMP DP  RH WIND       PRES   REMARKS
CLARKSVILLE    SUNNY     69  55  60 N3        30.07F
CROSSVILLE     CLOUDY    65  61  87 N5        30.09R FOG
GALLATIN         N/A     72  59  63 N7        30.06F
DICKSON        SUNNY     68  59  73 CALM      30.06F
LEBANON        CLOUDY    70  60  70 NW3       30.04F
LIVINGSTON     PTCLDY    66  60  81 CALM      30.07F
NASHVILLE      MOCLDY    72  61  68 NE7       30.05F
WEST NASHVILLE   N/A     72  57  60 NW5       30.05F
PORTLAND       CLEAR     68  57  68 CALM      30.05F
SMYRNA         MOCLDY    71  63  76 NE8       30.06S
SPARTA         CLOUDY    70  64  83 CALM      30.06S
$$
TNZ056-058-060-061-075>077-079-093>097-170000
...SOUTHERN MIDDLE TENNESSEE...

CITY           SKY/WX    TMP DP  RH WIND       PRES   REMARKS
COLUMBIA       MOSUNNY   72  66  83 N6        30.04F
FAYETTEVILLE   MOCLDY    72  64  78 N9        30.04R
LEWISBURG      CLOUDY    71  65  81 N5        30.05S
MCMINNVILLE      N/A     66  66 100 N6        30.06F
MURFREESBORO   CLEAR     71  62  73 NE5       30.04F
SHELBYVILLE    MOCLDY    72  64  78 CALM      30.06S
TULLAHOMA      CLOUDY    68  64  88 N5        30.07R
WINCHESTER     CLOUDY    73  66  78 N7        30.04S
$$


...KEY TO REMARKS...
VSB - VISIBILITY IN MILES
WCI - WIND CHILL INDEX
HX  - HEAT INDEX




USA.gov is the U.S. government's official web portal to all federal, state and local government web resources and services.